Regional Weather Roundup
Issued by NWS

Home | Current Version | Previous Version | Graphics & Text | Print | Product List | Glossary On
Versions: 1 2 3 4 5 6 7 8 9 10 11 12 13 14 15 16 17 18 19 20 21 22 23 24 25 26 27 28 29 30 31 32 33 34 35 36 37 38 39 40 41 42 43 44 45 46 47 48 49 50
005
ASUS43 KMPX 171310
RWRMN
WEATHER ROUNDUP FOR MINNESOTA
NATIONAL WEATHER SERVICE TWIN CITIES/CHANHASSEN MN
800 AM CDT TUE OCT 17 2017


NOTE: "FAIR" INDICATES FEW OR NO CLOUDS BELOW 12,000 FEET WITH NO
SIGNIFICANT WEATHER AND/OR OBSTRUCTIONS TO VISIBILITY. N/A MEANS
CURRENT SKY AND/OR WEATHER CONDITIONS ARE NOT AVAILABLE.

MNZ060>063-068>070-171400-
   Twin Cities Metro

CITY           SKY/WX    TMP DP  RH WIND       PRES   REMARKS
TWIN CITIES    PTCLDY    48  41  76 CALM      30.01S
ST PAUL        CLOUDY    44  43  96 CALM      30.02F
CRYSTAL        CLOUDY    39  35  86 CALM      30.00S
BLAINE         PTCLDY    43  41  93 CALM      30.00S
LAKEVILLE      CLOUDY    37  37 100 CALM      30.01S
EDEN PRAIRIE   CLEAR     45  40  82 W3        30.00S
SOUTH ST PAUL  CLEAR     41  41 100 CALM      30.01F
LAKE ELMO      FAIR      37  36  93 CALM      30.02S
$$
MNZ001>005-007-008-013>017-022>024-027-028-171400-
   Northwest Minnesota

CITY           SKY/WX    TMP DP  RH WIND       PRES   REMARKS
BEMIDJI        CLOUDY    33  31  93 CALM      29.94S
HALLOCK        CLOUDY    36  32  87 S9        29.86F
ROSEAU           N/A     36  32  87 S6        29.88S
WARROAD        CLOUDY    39  36  87 SW3       29.88S
THIEF RVR FALL CLOUDY    38  33  82 S7        29.92S
CROOKSTON      CLOUDY    34  30  86 S8        29.91F WCI  27
FOSSTON        CLOUDY    36  32  87 S6        29.94S
DETROIT LAKES  CLEAR     41  39  93 S3        29.97S
MOORHEAD       CLOUDY    36  34  93 S6        29.95F
PARK RAPIDS    CLEAR     35  31  85 CALM      29.96R
MAHNOMEN       FAIR      38  34  85 S7        29.94F
$$
MNZ006-009>011-018-025>026-171400-
   North Central Minnesota

CITY           SKY/WX    TMP DP  RH WIND       PRES   REMARKS
BAUDETTE       CLOUDY    38  34  85 S3        29.90R
FLAG ISLAND    PTCLDY    43  39  87 S5        29.87R
INTL FALLS     PTCLDY    31  28  89 CALM      29.91R
WASKISH        PTCLDY    37  36  93 CALM      29.91F
BIG FORK       PTCLDY    32  30  93 CALM      29.94S
LONGVILLE      CLEAR     30  30 100 CALM      29.95S
GRAND RAPIDS   PTCLDY    36  35  96 SE3       29.97S
CRANE LAKE     CLEAR     28  28 100 CALM      29.93R
ORR            CLOUDY    37  34  87 CALM      29.91R
COOK           PTCLDY    32  30  93 CALM      29.94R
WALKER         FAIR      39  35  86 CALM      29.95S
$$
MNZ012-019>021-037-171400-
   Northeast Minnesota

CITY           SKY/WX    TMP DP  RH WIND       PRES   REMARKS
DULUTH         CLOUDY    44  38  79 NW3       29.96R
ELY            PTCLDY    34  34 100 CALM      29.92S
HIBBING        PTCLDY    32  31  96 CALM      29.95S
EVELETH        CLOUDY    32  32 100 CALM      29.96S
DULUTH HARBOR  CLOUDY    45  41  87 S5        29.97S
TWO HARBORS    PTCLDY    46  39  76 CALM      29.94R
GRAND MARAIS     N/A     53  38  56 N10G16    29.88F
G MARAIS ARPRT PTCLDY    39  32  75 NW3       29.92R
$$
MNZ029>031-032-039>041-046>048-054>057-064-171400-
   West Central Minnesota

CITY           SKY/WX    TMP DP  RH WIND       PRES   REMARKS
FERGUS FALLS   CLOUDY    39  39 100 SE5       29.99S
WHEATON        CLOUDY    36  32  87 SE6       29.99F
MORRIS         CLOUDY    36  34  93 SE3       29.97F
ALEXANDRIA     CLOUDY    39  38  96 CALM      29.99S
ELBOW LAKE     FAIR      39  38  99 SE3       29.99S
WADENA         CLOUDY    36  36 100 CALM      29.97S
GLENWOOD       CLOUDY    37  36  93 CALM      29.99S
APPLETON       CLOUDY    37  37 100 CALM      29.98F
BENSON         CLOUDY    34  32  93 CALM      30.00S
ORTONVILLE     CLEAR     39  36  87 CALM      29.98S
MADISON        CLEAR     39  39 100 CALM      29.99S
WILLMAR        FAIR      37  37 100 CALM      30.01S
$$
MNZ033>034-036-042>043-049>051-058-059-171400-
   Central Minnesota

CITY           SKY/WX    TMP DP  RH WIND       PRES   REMARKS
ST CLOUD       CLOUDY    34  34 100 CALM      29.99S
SAUK CENTRE    FAIR      37  36  97 CALM      29.99S
PAYNESVILLE    CLOUDY    36  36 100 CALM      30.00F
AITKIN         CLEAR     30  28  93 CALM      29.96S
PINE RIVER     CLEAR     30  30 100 CALM      30.01R
BRAINERD       CLEAR     35  34  96 CALM      29.98S
STAPLES        CLOUDY    34  34 100 CALM      29.98R
LONG PRAIRIE   FAIR      36  36 100 CALM      29.98F
LITTLE FALLS   CLEAR     32  32 100 CALM      29.99S
LITCHFIELD     CLOUDY    41  41 100 CALM      30.00F
BUFFALO        CLOUDY    37  35  90 CALM      30.01S
MAPLE LAKE     CLOUDY    38  38  99 CALM      30.01S
HUTCHINSON     CLOUDY    36  35  99 CALM      30.02R
$$
MNZ037-044-045-052-053-171400-
   East Central Minnesota

CITY           SKY/WX    TMP DP  RH WIND       PRES   REMARKS
PRINCETON      CLOUDY    36  34  93 CALM      30.00R
MORA           CLEAR     34  32  93 CALM      30.01R
CAMBRIDGE      CLOUDY    39  39 100 CALM      30.00S
RUSH CITY      CLOUDY    36  35  96 CALM      30.00S
MOOSE LAKE     CLEAR     34  32  93 CALM      29.97R
HINCKLEY       FAIR      34  34 100 CALM      29.99R
CLOQUET        CLOUDY    43  36  75 CALM      29.96S
MCGREGOR       CLEAR     36  34  93 CALM      29.98R
$$
MNZ071>073-080-081-089-090-097-098-171400-
   Southwest Minnesota

CITY           SKY/WX    TMP DP  RH WIND       PRES   REMARKS
MONTEVIDEO     CLOUDY    37  34  87 SW3       30.00S
GRANITE FALLS  CLEAR     37  35  93 CALM      30.02S
CANBY          CLEAR     47  37  69 SW3       30.00F
MARSHALL       CLEAR     46  38  73 CALM      30.01S
REDWOOD FALLS  CLOUDY    42  36  79 CALM      30.01S
OLIVIA         CLOUDY    36  34  93 SW3       30.00S
PIPESTONE      CLEAR     39  36  87 CALM      30.04R
WORTHINGTON    CLEAR     46  38  73 SW8       30.04S
JACKSON        PTCLDY    45  37  76 SW6       30.04R
TRACY          CLEAR     48  40  75 SW9       30.01S
SLAYTON        CLEAR     45  38  78 SW5       30.04S
$$
MNZ065>067-074>077-082>085-091>093-171400-
   South Central Minnesota

CITY           SKY/WX    TMP DP  RH WIND       PRES   REMARKS
MANKATO        CLEAR     42  39  89 S5        30.02F
NEW ULM          N/A     41  36  81 SW3       30.01S
ST JAMES       CLEAR     43  37  81 S3        30.03S
FAIRMONT       CLEAR     44  39  82 CALM      30.04
GLENCOE        CLEAR     39  39 100 CALM      30.00S
FARIBAULT      CLEAR     45  39  81 S5        30.02F
OWATONNA       CLEAR     45  39  81 S5        30.03S
WASECA         CLEAR     41  37  87 S3        30.04S
ALBERT LEA     CLEAR     50  43  76 SW7       30.05R
$$
MNZ078>079-086>088-094>096-171400-
   Southeast Minnesota

CITY           SKY/WX    TMP DP  RH WIND       PRES   REMARKS
ROCHESTER      CLEAR     44  40  85 CALM      30.05R
RED WING       CLOUDY    41  37  87 CALM      30.02S
STANTON        CLOUDY    46  40  80 S5        30.00S
DODGE CENTER   CLEAR     45  39  81 SW7       30.04R
WINONA         CLEAR     46  43  87 CALM      30.05S
AUSTIN         CLEAR     45  39  81 S5        30.05R
PRESTON        CLEAR     44  38  80 S5        30.06R
$$
ABBREVIATIONS USED IN REMARKS
   TC - TEMPERATURES IN CELSIUS
  WCI - WIND CHILL INDEX
   HX - HEAT INDEX
  VSB - VISIBILITY
$$




USA.gov is the U.S. government's official web portal to all federal, state and local government web resources and services.